Regional Weather Roundup
Issued by NWS Goodland, KS

Home | Current Version | Previous Version | Graphics & Text | Print | Product List | Glossary On
Versions: 1 2 3 4 5 6 7 8 9 10 11 12 13 14 15 16 17 18 19 20 21 22 23 24 25 26 27 28 29 30 31 32 33 34 35 36 37 38 39 40 41 42 43 44 45 46 47 48 49 50
000
ASUS43 KGLD 280459
RWRGLD

GOODLAND FORECAST AREA HOURLY WEATHER ROUNDUP
NATIONAL WEATHER SERVICE GOODLAND KS
1000 PM MST MON FEB 27 2017

...OFFICIAL OBSERVATIONS...

CITY           SKY/WX    TMP DP  RH WIND       PRES   REMARKS
GOODLAND KS    PTCLDY    49  16  26 SW26G36   29.60R
HILL CITY KS   CLOUDY    46  30  53 SW10      29.61F
IMPERIAL NEB   CLOUDY    39  20  46 NW15      29.55R
MCCOOK NEB     CLOUDY    48  17  29 S12       29.54F
AKRON CO       CLOUDY    29  22  75 NW22      29.64S WCI  15
BURLINGTON CO  CLEAR     45  16  31 SW21      29.64R
LIMON CO       CLEAR    N/A N/A N/A E8        29.65R
$$

...UNOFFICIAL OBSERVATIONS...

CITY           SKY/WX    TMP DP  RH WIND       PRES   REMARKS
LENORA KS        N/A     44  32  63 S10         N/A
NORTON KS      CLEAR     43  25  49 S3        29.58S
SHARON SPRINGS   N/A     47  16  28 SW20        N/A
TRENTON NEB      N/A     42  32  68 SW7         N/A
KIT CARSON CO    N/A     42  18  37 MISG        N/A
YUMA CO        FAIR      32  23  69 NW10      29.65S
$$



USA.gov is the U.S. government's official web portal to all federal, state and local government web resources and services.